Regional Weather Roundup
Issued by NWS Spokane, WA

Home | Current Version | Previous Version | Text Only | Print | Product List | Glossary On
Versions: 1 2 3 4 5 6 7 8 9 10 11 12 13 14 15 16 17 18 19 20 21 22 23 24 25 26 27 28 29 30 31 32 33 34 35 36 37 38 39 40 41 42 43 44 45 46 47 48 49 50
000
NZUS01 KOTX 211605
RWROTX
EASTERN WASHINGTON/NORTHERN IDAHO ROUNDUP
NATIONAL WEATHER SERVICE, SPOKANE WA
800 AM PST SUN DEC 21 2014

Note: "fair" indicated few or no clouds below 12,000 feet with no
significant weather and/or obstructions to visibility.

...NORTHEAST WASHINGTON AND NORTHERN IDAHO PANHANDLE...

CITY           SKY/WX    TMP DP  RH WIND       PRES   REMARKS
SPOKANE INTL   MOCLDY    42  35  76 W20       29.65R
SPOKANE DOWNTO PTCLDY    39  36  89 S6        29.68R
COEUR D ALENE  PTCLDY    39  36  87 SW21      29.63S
DEER PARK      PTCLDY    39  35  86 S12       29.65R
SANDPOINT      PTCLDY    41  41 100 SW8       29.59R

...SOUTHEAST WASHINGTON AND SOUTHERN IDAHO PANHANDLE...

CITY           SKY/WX    TMP DP  RH WIND       PRES   REMARKS
WALLA WALLA    CLOUDY    53  43  68 SW24      29.83R
PULLMAN/MOSCOW CLOUDY    45  41  86 SW17G29   29.74R
LEWISTON       LGT RAIN  54  40  59 W20G33    29.76R
LOWELL           N/A     40  38  93 CALM      29.76R

...COLUMBIA BASIN...

CITY           SKY/WX    TMP DP  RH WIND       PRES   REMARKS
EPHRATA        MOCLDY    47  37  68 W20       29.70R
MOSES LAKE     MOCLDY    41  36  82 SW3       29.74R
TRI CITIES     MOCLDY    54  41  61 W15       29.79R
HERMISTON      CLOUDY    54  42  64 W15G24    29.83R
PENDLETON      CLOUDY    50  42  74 W23G29    29.84R

...EAST SLOPES CASCADES...

CITY           SKY/WX    TMP DP  RH WIND       PRES   REMARKS
THE DALLES     CLOUDY    52  47  83 NW6       29.88R
YAKIMA         MOCLDY    50  37  61 E5        29.78R
ELLENSBURG     LGT RAIN  45  39  79 N8        29.75R
WENATCHEE      CLOUDY    38  36  92 CALM      29.74R
OMAK           PTCLDY    34  32  92 S8        29.68R WCI  27

...SOUTHERN BRITISH COLUMBIA...

CITY           SKY/WX    TMP DP  RH WIND       PRES   REMARKS

...WESTERN MONTANA...

CITY           SKY/WX    TMP DP  RH WIND       PRES   REMARKS
MISSOULA       MIX PCPN  32  31  96 SE7       29.59R FOG     WCI  26

...NEIGHBORING CITIES...

CITY           SKY/WX    TMP DP  RH WIND       PRES   REMARKS
SEATTLE        CLOUDY    51  46  83 SW13G24   29.85R



USA.gov is the U.S. government's official web portal to all federal, state and local government web resources and services.